contact:dominique.lefevre@mio.osupytheas.fr, maurice.libes@osupytheas.fr, didier.mallarino@osupytheas.fr
Project:EMSO http://www.emso-fr.org/EMSO-France
Depth: 2436.0 m
Title:EMSO Ligure Ouest : Data MII capteur CSTAR
DateTime,Latitude,Longitude,Instrument_Serial,Reference_Counts,Signal_Counts,Corrected_Signal_raw_counts,Calculated_Beam_c_inverse_meters,Internal_thermistor_counts
DateTime,Latitude,Longitude,Instrument_Serial,Reference_Counts,Signal_Counts,Corrected_Signal_raw_counts,Calculated_Beam_c_inverse_meters,Internal_thermistor_counts
2020-05-20T00:03:01,42.805,6.029,CST-1368DR,6303,8834,15164,0.117,551
2020-05-20T00:06:02,42.805,6.029,CST-1368DR,6303,8834,15164,0.117,551
2020-05-20T00:09:04,42.805,6.029,CST-1368DR,6303,8833,15163,0.118,551
2020-05-20T00:12:06,42.805,6.029,CST-1368DR,6303,8833,15164,0.117,551
2020-05-20T00:15:07,42.805,6.029,CST-1368DR,6303,8834,15164,0.117,551
2020-05-20T00:18:09,42.805,6.029,CST-1368DR,6303,8831,15160,0.119,551
2020-05-20T00:21:11,42.805,6.029,CST-1368DR,6303,8833,15162,0.118,551
2020-05-20T00:24:12,42.805,6.029,CST-1368DR,6303,8834,15164,0.117,551
2020-05-20T00:27:14,42.805,6.029,CST-1368DR,6303,8834,15164,0.117,551
2020-05-20T00:30:16,42.805,6.029,CST-1368DR,6303,8834,15165,0.117,551
2020-05-20T00:33:17,42.805,6.029,CST-1368DR,6303,8834,15165,0.117,551
2020-05-20T00:36:19,42.805,6.029,CST-1368DR,6303,8829,15155,0.120,551
2020-05-20T00:39:21,42.805,6.029,CST-1368DR,6303,8833,15164,0.117,551
2020-05-20T00:42:22,42.805,6.029,CST-1368DR,6303,8832,15161,0.118,551
2020-05-20T00:45:24,42.805,6.029,CST-1368DR,6303,8828,15155,0.120,551
2020-05-20T00:48:26,42.805,6.029,CST-1368DR,6303,8833,15164,0.117,551
2020-05-20T00:51:28,42.805,6.029,CST-1368DR,6303,8833,15164,0.117,551
2020-05-20T00:54:29,42.805,6.029,CST-1368DR,6302,8833,15165,0.117,551
2020-05-20T00:57:31,42.805,6.029,CST-1368DR,6303,8833,15162,0.118,551
2020-05-20T01:00:35,42.805,6.029,CST-1368DR,6303,8833,15163,0.118,551
2020-05-20T01:03:37,42.805,6.029,CST-1368DR,6303,8833,15164,0.117,551
2020-05-20T01:13:27,42.805,6.029,CST-1368DR,6303,8832,15162,0.118,551
2020-05-20T01:25:06,42.805,6.029,CST-1368DR,6303,8833,15164,0.117,551
2020-05-20T01:32:09,42.805,6.029,CST-1368DR,6303,8834,15164,0.117,551
2020-05-20T01:55:58,42.805,6.029,CST-1368DR,6303,8834,15164,0.117,551
2020-05-20T01:58:59,42.805,6.029,CST-1368DR,6303,8833,15164,0.117,551
2020-05-20T02:02:01,42.805,6.029,CST-1368DR,6303,8832,15162,0.118,550
2020-05-20T02:05:03,42.805,6.029,CST-1368DR,6303,8833,15162,0.118,551
2020-05-20T02:08:04,42.805,6.029,CST-1368DR,6303,8832,15161,0.118,551
2020-05-20T02:11:06,42.805,6.029,CST-1368DR,6303,8834,15164,0.117,551
2020-05-20T02:14:08,42.805,6.029,CST-1368DR,6303,8834,15164,0.117,551
2020-05-20T02:17:10,42.805,6.029,CST-1368DR,6303,8834,15165,0.117,551
2020-05-20T02:20:11,42.805,6.029,CST-1368DR,6303,8835,15166,0.117,551
2020-05-20T02:23:13,42.805,6.029,CST-1368DR,6303,8833,15162,0.118,550
2020-05-20T02:26:15,42.805,6.029,CST-1368DR,6303,8830,15158,0.119,551
2020-05-20T02:29:16,42.805,6.029,CST-1368DR,6303,8834,15164,0.117,551
2020-05-20T02:32:18,42.805,6.029,CST-1368DR,6303,8833,15162,0.118,551
2020-05-20T02:35:20,42.805,6.029,CST-1368DR,6303,8832,15161,0.118,550
2020-05-20T02:38:21,42.805,6.029,CST-1368DR,6303,8834,15164,0.117,551
2020-05-20T02:41:23,42.805,6.029,CST-1368DR,6303,8829,15156,0.120,551
2020-05-20T02:44:25,42.805,6.029,CST-1368DR,6303,8831,15159,0.119,551
2020-05-20T02:47:26,42.805,6.029,CST-1368DR,6303,8829,15156,0.120,551
2020-05-20T02:50:28,42.805,6.029,CST-1368DR,6303,8828,15155,0.120,551
2020-05-20T02:53:30,42.805,6.029,CST-1368DR,6303,8834,15164,0.117,551
2020-05-20T02:56:32,42.805,6.029,CST-1368DR,6303,8834,15164,0.117,551
2020-05-20T02:59:33,42.805,6.029,CST-1368DR,6303,8834,15165,0.117,551
2020-05-20T03:02:35,42.805,6.029,CST-1368DR,6303,8830,15158,0.119,551
2020-05-20T03:05:37,42.805,6.029,CST-1368DR,6303,8835,15166,0.117,551
2020-05-20T03:08:38,42.805,6.029,CST-1368DR,6303,8834,15164,0.117,551
2020-05-20T03:11:40,42.805,6.029,CST-1368DR,6303,8833,15163,0.118,551
2020-05-20T03:14:42,42.805,6.029,CST-1368DR,6303,8832,15161,0.118,551
2020-05-20T03:17:43,42.805,6.029,CST-1368DR,6303,8829,15157,0.119,551
2020-05-20T03:20:45,42.805,6.029,CST-1368DR,6303,8833,15162,0.118,551
2020-05-20T03:23:47,42.805,6.029,CST-1368DR,6303,8832,15162,0.118,550
2020-05-20T03:26:48,42.805,6.029,CST-1368DR,6303,8832,15161,0.118,551
2020-05-20T03:29:50,42.805,6.029,CST-1368DR,6303,8831,15160,0.119,551
2020-05-20T03:32:52,42.805,6.029,CST-1368DR,6303,8832,15161,0.118,551
2020-05-20T03:35:54,42.805,6.029,CST-1368DR,6303,8832,15161,0.118,551
2020-05-20T03:38:55,42.805,6.029,CST-1368DR,6303,8832,15162,0.118,551
2020-05-20T03:41:57,42.805,6.029,CST-1368DR,6303,8833,15162,0.118,551
2020-05-20T03:44:59,42.805,6.029,CST-1368DR,6303,8830,15157,0.119,551
2020-05-20T03:48:00,42.805,6.029,CST-1368DR,6303,8829,15156,0.120,551
2020-05-20T03:51:02,42.805,6.029,CST-1368DR,6303,8831,15160,0.119,551
2020-05-20T03:54:04,42.805,6.029,CST-1368DR,6303,8832,15161,0.118,551
2020-05-20T03:57:05,42.805,6.029,CST-1368DR,6303,8833,15164,0.117,551
2020-05-20T04:00:07,42.805,6.029,CST-1368DR,6303,8832,15162,0.118,551
2020-05-20T04:03:09,42.805,6.029,CST-1368DR,6303,8833,15163,0.118,551
2020-05-20T04:06:10,42.805,6.029,CST-1368DR,6303,8833,15163,0.118,551
2020-05-20T04:09:12,42.805,6.029,CST-1368DR,6303,8832,15161,0.118,551
2020-05-20T04:12:14,42.805,6.029,CST-1368DR,6303,8833,15164,0.117,551
2020-05-20T04:15:15,42.805,6.029,CST-1368DR,6303,8833,15163,0.118,551
2020-05-20T04:18:17,42.805,6.029,CST-1368DR,6303,8833,15162,0.118,551
2020-05-20T04:21:19,42.805,6.029,CST-1368DR,6303,8830,15158,0.119,551
2020-05-20T04:24:21,42.805,6.029,CST-1368DR,6303,8833,15163,0.118,550
2020-05-20T04:27:22,42.805,6.029,CST-1368DR,6303,8833,15164,0.117,550
2020-05-20T04:30:24,42.805,6.029,CST-1368DR,6303,8832,15161,0.118,551
2020-05-20T04:33:26,42.805,6.029,CST-1368DR,6303,8831,15160,0.119,551
2020-05-20T04:36:27,42.805,6.029,CST-1368DR,6303,8829,15156,0.120,551
2020-05-20T04:39:29,42.805,6.029,CST-1368DR,6303,8833,15162,0.118,551
2020-05-20T04:42:31,42.805,6.029,CST-1368DR,6303,8832,15162,0.118,551
2020-05-20T04:45:32,42.805,6.029,CST-1368DR,6303,8833,15163,0.118,551
2020-05-20T04:48:34,42.805,6.029,CST-1368DR,6303,8833,15162,0.118,551
2020-05-20T04:51:36,42.805,6.029,CST-1368DR,6303,8833,15163,0.118,551
2020-05-20T04:54:37,42.805,6.029,CST-1368DR,6302,8833,15165,0.117,551
2020-05-20T04:57:39,42.805,6.029,CST-1368DR,6302,8832,15164,0.117,551
2020-05-20T05:00:41,42.805,6.029,CST-1368DR,6303,8833,15162,0.118,551
2020-05-20T05:03:42,42.805,6.029,CST-1368DR,6303,8832,15162,0.118,551
2020-05-20T05:06:44,42.805,6.029,CST-1368DR,6303,8830,15157,0.119,551
2020-05-20T05:09:46,42.805,6.029,CST-1368DR,6302,8827,15155,0.120,551
2020-05-20T05:12:47,42.805,6.029,CST-1368DR,6302,8831,15161,0.118,551
2020-05-20T05:15:49,42.805,6.029,CST-1368DR,6302,8829,15159,0.119,551
2020-05-20T05:18:51,42.805,6.029,CST-1368DR,6302,8832,15164,0.117,551
2020-05-20T05:21:52,42.805,6.029,CST-1368DR,6303,8832,15162,0.118,551
2020-05-20T05:24:54,42.805,6.029,CST-1368DR,6302,8832,15164,0.117,550
2020-05-20T05:27:56,42.805,6.029,CST-1368DR,6303,8833,15162,0.118,551
2020-05-20T05:30:58,42.805,6.029,CST-1368DR,6302,8831,15162,0.118,551
2020-05-20T05:33:59,42.805,6.029,CST-1368DR,6302,8832,15163,0.118,551
2020-05-20T05:37:01,42.805,6.029,CST-1368DR,6302,8830,15160,0.119,551
2020-05-20T05:40:03,42.805,6.029,CST-1368DR,6302,8830,15159,0.119,551
2020-05-20T05:43:04,42.805,6.029,CST-1368DR,6302,8830,15160,0.119,551
2020-05-20T05:46:06,42.805,6.029,CST-1368DR,6302,8831,15161,0.118,551
2020-05-20T05:49:08,42.805,6.029,CST-1368DR,6302,8831,15162,0.118,551
2020-05-20T05:52:09,42.805,6.029,CST-1368DR,6302,8832,15164,0.117,551
2020-05-20T05:55:11,42.805,6.029,CST-1368DR,6302,8831,15162,0.118,551
2020-05-20T05:58:13,42.805,6.029,CST-1368DR,6302,8831,15162,0.118,550
2020-05-20T06:01:14,42.805,6.029,CST-1368DR,6302,8831,15162,0.118,551
2020-05-20T06:04:16,42.805,6.029,CST-1368DR,6302,8831,15162,0.118,551
2020-05-20T06:07:18,42.805,6.029,CST-1368DR,6302,8831,15162,0.118,551
2020-05-20T06:10:20,42.805,6.029,CST-1368DR,6302,8830,15160,0.119,551
2020-05-20T06:13:21,42.805,6.029,CST-1368DR,6302,8829,15159,0.119,551
2020-05-20T06:16:23,42.805,6.029,CST-1368DR,6302,8830,15160,0.119,550
2020-05-20T06:19:25,42.805,6.029,CST-1368DR,6302,8831,15162,0.118,551
2020-05-20T06:22:26,42.805,6.029,CST-1368DR,6302,8831,15162,0.118,551
2020-05-20T06:25:28,42.805,6.029,CST-1368DR,6302,8830,15159,0.119,551
2020-05-20T06:28:30,42.805,6.029,CST-1368DR,6302,8833,15165,0.117,551
2020-05-20T06:31:31,42.805,6.029,CST-1368DR,6302,8830,15161,0.118,551
2020-05-20T06:34:33,42.805,6.029,CST-1368DR,6302,8831,15162,0.118,551
2020-05-20T06:37:35,42.805,6.029,CST-1368DR,6302,8831,15162,0.118,551
2020-05-20T06:40:37,42.805,6.029,CST-1368DR,6302,8832,15163,0.118,551
2020-05-20T06:43:38,42.805,6.029,CST-1368DR,6302,8832,15163,0.118,551
2020-05-20T06:46:40,42.805,6.029,CST-1368DR,6302,8830,15161,0.118,551
2020-05-20T06:49:42,42.805,6.029,CST-1368DR,6302,8831,15162,0.118,551
2020-05-20T06:52:43,42.805,6.029,CST-1368DR,6302,8830,15159,0.119,551
2020-05-20T06:55:45,42.805,6.029,CST-1368DR,6302,8830,15160,0.119,551
2020-05-20T06:58:47,42.805,6.029,CST-1368DR,6302,8831,15162,0.118,551
2020-05-20T07:01:49,42.805,6.029,CST-1368DR,6302,8826,15153,0.120,551
2020-05-20T07:04:50,42.805,6.029,CST-1368DR,6302,8828,15157,0.119,551
2020-05-20T07:07:52,42.805,6.029,CST-1368DR,6302,8831,15161,0.118,551
2020-05-20T07:10:54,42.805,6.029,CST-1368DR,6302,8832,15163,0.118,551
2020-05-20T07:13:55,42.805,6.029,CST-1368DR,6302,8830,15161,0.118,551
2020-05-20T07:16:57,42.805,6.029,CST-1368DR,6302,8831,15162,0.118,551
2020-05-20T07:19:59,42.805,6.029,CST-1368DR,6302,8828,15157,0.119,551
2020-05-20T07:23:00,42.805,6.029,CST-1368DR,6302,8832,15163,0.118,551
2020-05-20T07:26:02,42.805,6.029,CST-1368DR,6302,8831,15162,0.118,551
2020-05-20T07:29:04,42.805,6.029,CST-1368DR,6302,8832,15163,0.118,551
2020-05-20T07:32:06,42.805,6.029,CST-1368DR,6302,8831,15161,0.118,551
2020-05-20T07:35:07,42.805,6.029,CST-1368DR,6302,8830,15159,0.119,551
2020-05-20T07:38:09,42.805,6.029,CST-1368DR,6302,8830,15160,0.119,551
2020-05-20T07:41:11,42.805,6.029,CST-1368DR,6302,8831,15162,0.118,551
2020-05-20T07:44:13,42.805,6.029,CST-1368DR,6302,8829,15159,0.119,551
2020-05-20T07:47:14,42.805,6.029,CST-1368DR,6302,8831,15162,0.118,551
2020-05-20T07:50:16,42.805,6.029,CST-1368DR,6302,8831,15162,0.118,551
2020-05-20T07:53:18,42.805,6.029,CST-1368DR,6302,8831,15162,0.118,551
2020-05-20T07:56:19,42.805,6.029,CST-1368DR,6302,8831,15162,0.118,551
2020-05-20T07:59:21,42.805,6.029,CST-1368DR,6302,8830,15159,0.119,551
2020-05-20T08:02:23,42.805,6.029,CST-1368DR,6302,8832,15163,0.118,550
2020-05-20T08:05:24,42.805,6.029,CST-1368DR,6302,8829,15159,0.119,551
2020-05-20T08:08:26,42.805,6.029,CST-1368DR,6302,8830,15161,0.118,551
2020-05-20T08:11:28,42.805,6.029,CST-1368DR,6302,8831,15162,0.118,550
2020-05-20T08:14:29,42.805,6.029,CST-1368DR,6302,8830,15160,0.119,551
2020-05-20T08:17:31,42.805,6.029,CST-1368DR,6302,8830,15159,0.119,551
2020-05-20T08:20:33,42.805,6.029,CST-1368DR,6302,8830,15159,0.119,550
2020-05-20T08:23:34,42.805,6.029,CST-1368DR,6302,8832,15163,0.118,551
2020-05-20T08:26:36,42.805,6.029,CST-1368DR,6302,8831,15162,0.118,551
2020-05-20T08:29:38,42.805,6.029,CST-1368DR,6302,8830,15159,0.119,551
2020-05-20T08:32:40,42.805,6.029,CST-1368DR,6302,8829,15158,0.119,551
2020-05-20T08:35:41,42.805,6.029,CST-1368DR,6302,8831,15162,0.118,551
2020-05-20T08:38:43,42.805,6.029,CST-1368DR,6302,8830,15161,0.118,551
2020-05-20T08:41:44,42.805,6.029,CST-1368DR,6302,8830,15160,0.119,551
2020-05-20T08:44:46,42.805,6.029,CST-1368DR,6302,8829,15158,0.119,550
2020-05-20T08:47:48,42.805,6.029,CST-1368DR,6302,8831,15162,0.118,551
2020-05-20T08:50:49,42.805,6.029,CST-1368DR,6302,8829,15158,0.119,551
2020-05-20T08:53:51,42.805,6.029,CST-1368DR,6302,8830,15159,0.119,551
2020-05-20T08:56:53,42.805,6.029,CST-1368DR,6302,8831,15162,0.118,551
2020-05-20T08:59:55,42.805,6.029,CST-1368DR,6302,8831,15162,0.118,551
2020-05-20T09:02:56,42.805,6.029,CST-1368DR,6302,8831,15161,0.118,551
2020-05-20T09:05:58,42.805,6.029,CST-1368DR,6302,8831,15162,0.118,551
2020-05-20T09:09:00,42.805,6.029,CST-1368DR,6302,8830,15160,0.119,551
2020-05-20T09:12:02,42.805,6.029,CST-1368DR,6302,8832,15163,0.118,550
2020-05-20T09:15:03,42.805,6.029,CST-1368DR,6302,8830,15159,0.119,551
2020-05-20T09:18:05,42.805,6.029,CST-1368DR,6302,8830,15160,0.119,551
2020-05-20T09:21:07,42.805,6.029,CST-1368DR,6302,8830,15160,0.119,551
2020-05-20T09:24:08,42.805,6.029,CST-1368DR,6302,8830,15161,0.118,551
2020-05-20T09:27:10,42.805,6.029,CST-1368DR,6302,8829,15159,0.119,551
2020-05-20T09:30:12,42.805,6.029,CST-1368DR,6302,8830,15160,0.119,551
2020-05-20T09:33:13,42.805,6.029,CST-1368DR,6302,8831,15161,0.118,551
2020-05-20T09:36:15,42.805,6.029,CST-1368DR,6302,8830,15160,0.119,551
2020-05-20T09:39:17,42.805,6.029,CST-1368DR,6302,8830,15161,0.118,551
2020-05-20T09:42:18,42.805,6.029,CST-1368DR,6302,8830,15160,0.119,551
2020-05-20T09:45:20,42.805,6.029,CST-1368DR,6302,8831,15161,0.118,550
2020-05-20T09:48:22,42.805,6.029,CST-1368DR,6302,8830,15161,0.118,550
2020-05-20T09:51:23,42.805,6.029,CST-1368DR,6302,8830,15161,0.118,550
2020-05-20T09:54:25,42.805,6.029,CST-1368DR,6302,8831,15162,0.118,551
2020-05-20T09:57:27,42.805,6.029,CST-1368DR,6302,8829,15159,0.119,551
2020-05-20T10:00:29,42.805,6.029,CST-1368DR,6302,8831,15162,0.118,551
2020-05-20T10:03:30,42.805,6.029,CST-1368DR,6302,8830,15159,0.119,551
2020-05-20T10:06:32,42.805,6.029,CST-1368DR,6302,8829,15159,0.119,551
2020-05-20T10:09:33,42.805,6.029,CST-1368DR,6302,8830,15160,0.119,551
2020-05-20T10:12:35,42.805,6.029,CST-1368DR,6302,8831,15162,0.118,551
2020-05-20T10:15:37,42.805,6.029,CST-1368DR,6302,8831,15162,0.118,551
2020-05-20T10:18:39,42.805,6.029,CST-1368DR,6302,8830,15160,0.119,550
2020-05-20T10:21:40,42.805,6.029,CST-1368DR,6302,8830,15161,0.118,551
2020-05-20T10:24:42,42.805,6.029,CST-1368DR,6302,8830,15159,0.119,551
2020-05-20T10:27:44,42.805,6.029,CST-1368DR,6302,8830,15160,0.119,550
2020-05-20T10:30:45,42.805,6.029,CST-1368DR,6302,8830,15160,0.119,551
2020-05-20T10:33:47,42.805,6.029,CST-1368DR,6302,8829,15158,0.119,550
2020-05-20T10:36:49,42.805,6.029,CST-1368DR,6302,8830,15159,0.119,551
2020-05-20T10:39:50,42.805,6.029,CST-1368DR,6302,8830,15160,0.119,551
2020-05-20T10:42:52,42.805,6.029,CST-1368DR,6302,8831,15162,0.118,551
2020-05-20T10:45:54,42.805,6.029,CST-1368DR,6302,8829,15159,0.119,551
2020-05-20T10:48:56,42.805,6.029,CST-1368DR,6301,8829,15160,0.119,551
2020-05-20T10:51:57,42.805,6.029,CST-1368DR,6302,8830,15161,0.118,551
2020-05-20T10:54:59,42.805,6.029,CST-1368DR,6302,8830,15159,0.119,551
2020-05-20T10:58:01,42.805,6.029,CST-1368DR,6302,8830,15160,0.119,551
2020-05-20T11:01:03,42.805,6.029,CST-1368DR,6302,8830,15159,0.119,551
2020-05-20T11:04:05,42.805,6.029,CST-1368DR,6302,8830,15160,0.119,551
2020-05-20T11:07:07,42.805,6.029,CST-1368DR,6302,8831,15162,0.118,551
2020-05-20T11:10:08,42.805,6.029,CST-1368DR,6302,8829,15159,0.119,551
2020-05-20T11:13:10,42.805,6.029,CST-1368DR,6301,8831,15164,0.117,551
2020-05-20T11:16:12,42.805,6.029,CST-1368DR,6301,8830,15162,0.118,551
2020-05-20T11:19:13,42.805,6.029,CST-1368DR,6302,8830,15160,0.119,551
2020-05-20T11:22:15,42.805,6.029,CST-1368DR,6301,8828,15158,0.119,551
2020-05-20T11:25:17,42.805,6.029,CST-1368DR,6302,8829,15158,0.119,551
2020-05-20T11:28:19,42.805,6.029,CST-1368DR,6301,8830,15163,0.118,551
2020-05-20T11:31:20,42.805,6.029,CST-1368DR,6301,8830,15163,0.118,551
2020-05-20T11:34:22,42.805,6.029,CST-1368DR,6301,8831,15164,0.117,551
2020-05-20T11:37:24,42.805,6.029,CST-1368DR,6301,8830,15162,0.118,551
2020-05-20T11:40:25,42.805,6.029,CST-1368DR,6301,8830,15162,0.118,551
2020-05-20T11:43:27,42.805,6.029,CST-1368DR,6301,8831,15163,0.118,551
2020-05-20T11:46:29,42.805,6.029,CST-1368DR,6301,8829,15160,0.119,551
2020-05-20T11:49:30,42.805,6.029,CST-1368DR,6301,8830,15162,0.118,551
2020-05-20T11:52:32,42.805,6.029,CST-1368DR,6301,8829,15160,0.119,551
2020-05-20T11:55:34,42.805,6.029,CST-1368DR,6301,8830,15162,0.118,551
2020-05-20T11:58:35,42.805,6.029,CST-1368DR,6301,8829,15161,0.118,551
2020-05-20T12:01:37,42.805,6.029,CST-1368DR,6301,8830,15163,0.118,551
2020-05-20T12:04:39,42.805,6.029,CST-1368DR,6301,8830,15162,0.118,551
2020-05-20T12:07:40,42.805,6.029,CST-1368DR,6301,8824,15152,0.121,551
2020-05-20T12:10:42,42.805,6.029,CST-1368DR,6301,8830,15163,0.118,551
2020-05-20T12:13:44,42.805,6.029,CST-1368DR,6301,8830,15163,0.118,551
2020-05-20T12:16:46,42.805,6.029,CST-1368DR,6301,8829,15160,0.119,551
2020-05-20T12:19:47,42.805,6.029,CST-1368DR,6301,8830,15163,0.118,551
2020-05-20T12:22:49,42.805,6.029,CST-1368DR,6301,8831,15164,0.117,551
2020-05-20T12:25:51,42.805,6.029,CST-1368DR,6301,8831,15164,0.117,551
2020-05-20T12:28:52,42.805,6.029,CST-1368DR,6301,8829,15160,0.119,551
2020-05-20T12:31:54,42.805,6.029,CST-1368DR,6301,8830,15162,0.118,551
2020-05-20T12:34:56,42.805,6.029,CST-1368DR,6301,8831,15163,0.118,551
2020-05-20T12:37:57,42.805,6.029,CST-1368DR,6301,8831,15164,0.117,551
2020-05-20T12:40:59,42.805,6.029,CST-1368DR,6301,8830,15163,0.118,551
2020-05-20T12:44:01,42.805,6.029,CST-1368DR,6301,8828,15159,0.119,551
2020-05-20T12:47:02,42.805,6.029,CST-1368DR,6301,8830,15162,0.118,551
2020-05-20T12:50:04,42.805,6.029,CST-1368DR,6301,8831,15164,0.117,551
2020-05-20T12:53:06,42.805,6.029,CST-1368DR,6301,8830,15163,0.118,551
2020-05-20T12:56:07,42.805,6.029,CST-1368DR,6301,8829,15160,0.119,551
2020-05-20T12:59:09,42.805,6.029,CST-1368DR,6301,8830,15163,0.118,551
2020-05-20T13:02:11,42.805,6.029,CST-1368DR,6301,8830,15162,0.118,551
2020-05-20T13:05:12,42.805,6.029,CST-1368DR,6301,8831,15163,0.118,551
2020-05-20T13:08:14,42.805,6.029,CST-1368DR,6301,8831,15163,0.118,551
2020-05-20T13:11:16,42.805,6.029,CST-1368DR,6301,8830,15162,0.118,551
2020-05-20T13:14:17,42.805,6.029,CST-1368DR,6301,8830,15162,0.118,551
2020-05-20T13:17:19,42.805,6.029,CST-1368DR,6301,8830,15162,0.118,551
2020-05-20T13:20:21,42.805,6.029,CST-1368DR,6301,8828,15159,0.119,551
2020-05-20T13:23:23,42.805,6.029,CST-1368DR,6301,8830,15163,0.118,551
2020-05-20T13:26:24,42.805,6.029,CST-1368DR,6301,8830,15162,0.118,551
2020-05-20T13:29:26,42.805,6.029,CST-1368DR,6301,8829,15161,0.118,550
2020-05-20T13:32:28,42.805,6.029,CST-1368DR,6301,8829,15160,0.119,551
2020-05-20T13:35:29,42.805,6.029,CST-1368DR,6301,8830,15162,0.118,551
2020-05-20T13:38:31,42.805,6.029,CST-1368DR,6301,8830,15162,0.118,551
2020-05-20T13:41:33,42.805,6.029,CST-1368DR,6301,8829,15161,0.118,551
2020-05-20T13:44:34,42.805,6.029,CST-1368DR,6301,8828,15158,0.119,551
2020-05-20T13:47:36,42.805,6.029,CST-1368DR,6301,8829,15161,0.118,551
2020-05-20T13:50:38,42.805,6.029,CST-1368DR,6301,8828,15158,0.119,551
2020-05-20T13:53:39,42.805,6.029,CST-1368DR,6301,8826,15156,0.120,551
2020-05-20T13:56:41,42.805,6.029,CST-1368DR,6301,8828,15159,0.119,551
2020-05-20T13:59:43,42.805,6.029,CST-1368DR,6301,8827,15157,0.119,550
2020-05-20T14:02:45,42.805,6.029,CST-1368DR,6301,8827,15157,0.119,551
2020-05-20T14:05:46,42.805,6.029,CST-1368DR,6301,8827,15157,0.119,551
2020-05-20T14:08:48,42.805,6.029,CST-1368DR,6301,8829,15160,0.119,551
2020-05-20T14:11:50,42.805,6.029,CST-1368DR,6301,8827,15157,0.119,551
2020-05-20T14:14:51,42.805,6.029,CST-1368DR,6301,8826,15156,0.120,550
2020-05-20T14:17:53,42.805,6.029,CST-1368DR,6301,8829,15160,0.119,551
2020-05-20T14:20:55,42.805,6.029,CST-1368DR,6301,8827,15158,0.119,550
2020-05-20T14:23:56,42.805,6.029,CST-1368DR,6301,8828,15158,0.119,551
2020-05-20T14:26:58,42.805,6.029,CST-1368DR,6301,8827,15157,0.119,551
2020-05-20T14:30:00,42.805,6.029,CST-1368DR,6301,8827,15158,0.119,551
2020-05-20T14:33:01,42.805,6.029,CST-1368DR,6301,8827,15158,0.119,551
2020-05-20T14:36:03,42.805,6.029,CST-1368DR,6301,8827,15157,0.119,551
2020-05-20T14:39:05,42.805,6.029,CST-1368DR,6301,8826,15156,0.120,551
2020-05-20T14:42:06,42.805,6.029,CST-1368DR,6301,8828,15158,0.119,551
2020-05-20T14:45:08,42.805,6.029,CST-1368DR,6301,8828,15158,0.119,551
2020-05-20T14:48:10,42.805,6.029,CST-1368DR,6301,8827,15157,0.119,551
2020-05-20T14:51:12,42.805,6.029,CST-1368DR,6300,8827,15159,0.119,551
2020-05-20T14:54:13,42.805,6.029,CST-1368DR,6300,8827,15159,0.119,551
2020-05-20T14:57:15,42.805,6.029,CST-1368DR,6300,8825,15155,0.120,551
2020-05-20T15:00:17,42.805,6.029,CST-1368DR,6300,8827,15160,0.119,551
2020-05-20T15:03:19,42.805,6.029,CST-1368DR,6300,8825,15157,0.119,551
2020-05-20T15:06:20,42.805,6.029,CST-1368DR,6300,8826,15158,0.119,551
2020-05-20T15:09:22,42.805,6.029,CST-1368DR,6300,8822,15152,0.121,551
2020-05-20T15:12:24,42.805,6.029,CST-1368DR,6300,8828,15161,0.118,550
2020-05-20T15:15:25,42.805,6.029,CST-1368DR,6300,8826,15158,0.119,551
2020-05-20T15:18:27,42.805,6.029,CST-1368DR,6300,8819,15146,0.122,551
2020-05-20T15:21:29,42.805,6.029,CST-1368DR,6300,8828,15161,0.118,551
2020-05-20T15:24:30,42.805,6.029,CST-1368DR,6300,8827,15160,0.119,551
2020-05-20T15:27:32,42.805,6.029,CST-1368DR,6300,8820,15147,0.122,551
2020-05-20T15:30:34,42.805,6.029,CST-1368DR,6300,8825,15157,0.119,551
2020-05-20T15:33:35,42.805,6.029,CST-1368DR,6300,8825,15157,0.119,550
2020-05-20T15:36:37,42.805,6.029,CST-1368DR,6300,8827,15159,0.119,551
2020-05-20T15:39:39,42.805,6.029,CST-1368DR,6300,8826,15158,0.119,551
2020-05-20T15:42:40,42.805,6.029,CST-1368DR,6300,8824,15155,0.120,551
2020-05-20T15:45:42,42.805,6.029,CST-1368DR,6300,8827,15160,0.119,551
2020-05-20T15:48:44,42.805,6.029,CST-1368DR,6300,8825,15155,0.120,551
2020-05-20T15:51:45,42.805,6.029,CST-1368DR,6300,8826,15158,0.119,551
2020-05-20T15:54:47,42.805,6.029,CST-1368DR,6300,8827,15160,0.119,551
2020-05-20T15:57:49,42.805,6.029,CST-1368DR,6300,8826,15158,0.119,551
2020-05-20T16:00:50,42.805,6.029,CST-1368DR,6300,8828,15161,0.118,551
2020-05-20T16:03:52,42.805,6.029,CST-1368DR,6300,8827,15159,0.119,551
2020-05-20T16:06:54,42.805,6.029,CST-1368DR,6300,8828,15161,0.118,551
2020-05-20T16:09:56,42.805,6.029,CST-1368DR,6300,8825,15155,0.120,551
2020-05-20T16:12:57,42.805,6.029,CST-1368DR,6300,8825,15156,0.120,551
2020-05-20T16:15:59,42.805,6.029,CST-1368DR,6300,8827,15159,0.119,551
2020-05-20T16:19:01,42.805,6.029,CST-1368DR,6300,8826,15158,0.119,551
2020-05-20T16:22:02,42.805,6.029,CST-1368DR,6300,8824,15154,0.120,550
2020-05-20T16:25:04,42.805,6.029,CST-1368DR,6300,8826,15157,0.119,551
2020-05-20T16:28:06,42.805,6.029,CST-1368DR,6300,8826,15158,0.119,551
2020-05-20T16:31:08,42.805,6.029,CST-1368DR,6300,8824,15154,0.120,551
2020-05-20T16:34:10,42.805,6.029,CST-1368DR,6300,8824,15154,0.120,551
2020-05-20T16:37:11,42.805,6.029,CST-1368DR,6300,8827,15159,0.119,551
2020-05-20T16:40:13,42.805,6.029,CST-1368DR,6300,8826,15158,0.119,551
2020-05-20T16:43:15,42.805,6.029,CST-1368DR,6300,8827,15159,0.119,551
2020-05-20T16:46:16,42.805,6.029,CST-1368DR,6300,8826,15158,0.119,551
2020-05-20T16:49:18,42.805,6.029,CST-1368DR,6300,8826,15157,0.119,551
2020-05-20T16:52:20,42.805,6.029,CST-1368DR,6300,8828,15161,0.118,551
2020-05-20T16:55:21,42.805,6.029,CST-1368DR,6300,8824,15155,0.120,551
2020-05-20T16:58:23,42.805,6.029,CST-1368DR,6300,8826,15157,0.119,551
2020-05-20T17:01:25,42.805,6.029,CST-1368DR,6300,8826,15158,0.119,550
2020-05-20T17:04:27,42.805,6.029,CST-1368DR,6300,8827,15159,0.119,551
2020-05-20T17:07:28,42.805,6.029,CST-1368DR,6300,8826,15158,0.119,551
2020-05-20T17:10:30,42.805,6.029,CST-1368DR,6300,8826,15158,0.119,551
2020-05-20T17:13:32,42.805,6.029,CST-1368DR,6300,8827,15159,0.119,551
2020-05-20T17:16:33,42.805,6.029,CST-1368DR,6300,8827,15160,0.119,551
2020-05-20T17:19:35,42.805,6.029,CST-1368DR,6300,8821,15149,0.121,551
2020-05-20T17:22:37,42.805,6.029,CST-1368DR,6300,8827,15159,0.119,551
2020-05-20T17:25:38,42.805,6.029,CST-1368DR,6300,8826,15158,0.119,551
2020-05-20T17:28:40,42.805,6.029,CST-1368DR,6300,8827,15159,0.119,551
2020-05-20T17:31:42,42.805,6.029,CST-1368DR,6300,8824,15155,0.120,551
2020-05-20T17:34:43,42.805,6.029,CST-1368DR,6300,8824,15154,0.120,551